This demonstration page uses our WeatherBlox Daily Observations layout. Learn more.

Left ArrowRight Arrow

31.84235, -102.49876

Hourly Observations for May 22, 2017

Temp ( °F °C ) Dew Point ( °F °C ) Humidity (%) Winds ( mph kmh ) Pressure ( in mb ) Visibility ( mi km ) Precip ( " mm )
12:53 am 00:53 Clear 58 14.4 55 12.8 90 90 ESE 8 13 30.03 1017 10 16 0.00 0.00
1:25 am 01:25 Partly Cloudy 58 14.4 56 13.3 93 93 ESE 8 13 30.03 1017 10 16 0.00 0.00
1:34 am 01:34 Mostly Cloudy 58 14.4 56 13.3 93 93 ESE 9 15 30.03 1017 10 16 0.00 0.00
1:53 am 01:53 Cloudy 59 15 56 13.3 90 90 ESE 10 17 30.03 1017 10 16 0.00 0.00
2:19 am 02:19 Cloudy 59 15 56 13.3 90 90 ESE 12 19 30.03 1017 10 16 0.00 0.00
2:53 am 02:53 Cloudy 59 15 56 13.3 90 90 ESE 10 17 30.03 1017 10 16 0.00 0.00
3:53 am 03:53 Cloudy 60 15.6 55 12.8 84 84 SE 8 13 30.02 1017 10 16 0.00 0.00
4:22 am 04:22 Cloudy 60 15.6 55 12.8 84 84 ESE 8 13 30.03 1017 10 16 0.00 0.00
4:42 am 04:42 Cloudy 60 15.6 55 12.8 84 84 ESE 10 17 30.03 1017 10 16 0.00 0.00
4:53 am 04:53 Cloudy 59 15 55 12.8 87 87 ESE 12 19 29.99 1016 10 16 0.00 0.00
5:53 am 05:53 Cloudy 59 15 55 12.8 87 87 ESE 10 17 29.99 1016 10 16 0.00 0.00
6:53 am 06:53 Cloudy with Mist and Fog 59 15 56 13.3 90 90 SE 7 11 29.99 1016 6 10 0.00 0.00
7:10 am 07:10 Cloudy with Mist and Fog 59 15 57 13.9 93 93 SE 7 11 30.03 1017 2 3 0.00 0.00
7:17 am 07:17 Cloudy with Mist and Fog 58 14.4 57 13.9 97 97 ESE 8 13 30.03 1017 1 2 0.00 0.00
7:43 am 07:43 Cloudy with Mist and Fog 59 15 58 14.4 96 96 E 6 9 30.03 1017 2 3 0.00 0.00
7:53 am 07:53 Cloudy with Mist and Fog 59 15 57 13.9 93 93 E 6 9 30.00 1016 2 3 0.00 0.00
8:14 am 08:14 Cloudy with Mist and Fog 59 15 58 14.4 96 96 ENE 6 9 30.03 1017 3 5 0.00 0.00
8:53 am 08:53 Cloudy with Mist and Fog 60 15.6 58 14.4 93 93 ENE 7 11 30.01 1016 4 6 0.00 0.00
9:11 am 09:11 Cloudy with Mist and Fog 60 15.6 58 14.4 93 93 E 7 11 30.03 1017 3 4 0.00 0.00
9:24 am 09:24 Cloudy with Mist and Fog 60 15.6 58 14.4 93 93 E 7 11 30.03 1017 2 2 0.00 0.00
9:53 am 09:53 Cloudy with Mist and Fog 60 15.6 59 15 96 96 E 9 15 30.01 1016 2 3 0.00 0.00
10:02 am 10:02 Cloudy with Mist and Fog 61 16.1 59 15 93 93 ESE 8 13 30.03 1017 3 5 0.00 0.00
10:53 am 10:53 Cloudy 62 16.7 58 14.4 86 86 E 7 11 30.00 1016 7 11 0.00 0.00
11:53 am 11:53 Cloudy 65 18.3 59 15 81 81 SE 10 17 29.98 1015 10 16 0.00 0.00
12:20 pm 12:20 Cloudy 65 18.3 58 14.4 78 78 ESE 6 9 29.97 1015 10 16 0.00 0.00
12:53 pm 12:53 Cloudy 66 18.9 59 15 78 78 SE 8 13 29.97 1015 10 16 0.00 0.00
1:23 pm 13:23 Cloudy 67 19.4 59 15 76 76 SE 6 9 29.94 1014 10 16 0.00 0.00
1:53 pm 13:53 Cloudy 69 20.6 58 14.4 68 68 Calm 29.94 1014 10 16 0.00 0.00
2:53 pm 14:53 Mostly Cloudy 73 22.8 58 14.4 59 59 Calm 29.91 1013 10 16 0.00 0.00
3:38 pm 15:38 Mostly Cloudy 73 22.8 57 13.9 57 57 VRB 5 7 29.85 1011 10 16 0.00 0.00
3:53 pm 15:53 Partly Cloudy 76 24.4 57 13.9 52 52 ENE 7 11 29.87 1012 10 16 0.00 0.00
4:53 pm 16:53 Sunny 77 25 56 13.3 48 48 VRB 5 7 29.83 1010 10 16 0.00 0.00
5:53 pm 17:53 Sunny 76 24.4 57 13.9 52 52 ENE 5 7 29.83 1010 10 16 0.00 0.00
6:53 pm 18:53 Mostly Sunny 75 23.9 57 13.9 54 54 S 3 6 29.85 1011 10 16 0.00 0.00
7:53 pm 19:53 Sunny 74 23.3 57 13.9 56 56 ENE 12 19 29.83 1010 10 16 0.00 0.03
8:53 pm 20:53 Partly Cloudy 73 22.8 60 15.6 64 64 Calm 29.90 1012 10 16 0.00 0.00
9:12 pm 21:12 Mostly Cloudy with Nearby Thunderstorms 72 22.2 61 16.1 68 68 WNW 12 19 29.94 1014 10 16 0.00 0.03
9:22 pm 21:22 Cloudy with Thunderstorms 67 19.4 60 15.6 79 79 NW 30 48 30.00 1016 6 10 0.03 0.76
9:31 pm 21:31 Cloudy with Strong Thunderstorms 60 15.6 55 12.8 84 84 NNW 7 11 30.03 1017 2 3 0.15 3.81
9:38 pm 21:38 Cloudy with Thunderstorms 60 15.6 55 12.8 84 84 VRB 7 11 30.03 1017 3 5 0.19 4.83
9:53 pm 21:53 Cloudy with Thunderstorms 60 15.6 56 13.3 86 86 ESE 6 9 30.00 1016 8 13 0.24 6.10
10:03 pm 22:03 Cloudy with Nearby Thunderstorms 61 16.1 56 13.3 84 84 ESE 5 7 30.00 1016 9 14 0.01 0.25
10:17 pm 22:17 Cloudy with Light Rain 66 18.9 53 11.7 63 63 S 12 19 29.85 1011 10 16 0.03 0.76
10:35 pm 22:35 Mostly Cloudy with Light Rain 70 21.1 49 9.4 47 47 W 15 24 29.80 1009 10 16 0.04 1.02
10:46 pm 22:46 Partly Cloudy 68 20 52 11.1 57 57 NW 9 15 29.83 1010 10 16 0.04 1.02
10:53 pm 22:53 Clear 66 18.9 53 11.7 63 63 WNW 8 13 29.84 1011 10 16 0.04 1.02
11:53 pm 23:53 Clear 63 17.2 56 13.3 78 78 S 7 11 29.85 1011 10 16 0.00 0.00

Powered by AerisWeather